Anniston, AL

10:18 AM CDT on June 28, 2017 (GMT -0500)
Anniston Metro

Weather History for KANB - November, 2012

Change the Weather History Date:

Friday, November 23, 2012

  Actual Average Record
Temperature  
Mean Temperature 54 °F 51 °F  
Max Temperature 71 °F 63 °F 78 °F (1973)
Min Temperature 37 °F 40 °F 18 °F (1956)
Degree Days  
Heating Degree Days 11    
Month to date heating degree days 307  
Since 1 July heating degree days 460  
Growing Degree Days 4 (Base 50)    
Moisture  
Dew Point 43 °F    
Average Humidity 67    
Maximum Humidity 93    
Minimum Humidity 41    
Precipitation  
Precipitation 0.00 in 0.16 in 2.62 in (1983)
Month to date precipitation 0.99 3.43  
Year to date precipitation 39.26 44.40  
Sea Level Pressure  
Sea Level Pressure 30.17 in    
Wind  
Wind Speed 6 mph (West)    
Max Wind Speed 18 mph    
Max Gust Speed 21 mph    
Visibility 8 miles    
Events      
T = Trace of Precipitation, MM = Missing Value Source: NWS Daily Summary

Daily Weather History Graph

Daily Weather History Graph

Search for Another Location

Airport or City:

Trip Planner

Search our weather history database for the weather conditions in past years. The results will help you decide how hot, cold, wet, or windy it might be!

Date:

Astronomy

Nov. 23, 2012 Rise Set
Actual Time 6:23 AM CST 4:36 PM CST
Civil Twilight 5:56 AM CST 5:03 PM CST
Nautical Twilight 5:25 AM CST 5:34 PM CST
Astronomical Twilight 4:55 AM CST 6:03 PM CST
Moon 1:41 PM CST (11/23) 1:52 AM CST (11/23)
Length of Visible Light 11h 07m
Length of Day
10h 13m
Waxing Gibbous, 80% of the Moon is Illuminated
Nov 23
Waxing Gibbous
Nov 28
Full
Dec 6
Last Quarter
Dec 13
New
Dec 19
First Quarter

Hourly Weather History & Observations

Time (CST) Temp. Dew Point Humidity Pressure Visibility Wind Dir Wind Speed Gust Speed Precip Events Conditions
12:53 AM 41.0 °F 39.0 °F 93% 30.19 in 7.0 mi Calm Calm - N/A   Clear
1:53 AM 42.1 °F 39.9 °F 92% 30.20 in 8.0 mi Calm Calm - N/A   Clear
2:53 AM 41.0 °F 39.0 °F 93% 30.21 in 7.0 mi Calm Calm - N/A   Clear
3:53 AM 39.9 °F 37.9 °F 93% 30.21 in 5.0 mi Calm Calm - N/A   Clear
4:53 AM 39.0 °F 37.0 °F 93% 30.23 in 5.0 mi Calm Calm - N/A   Clear
5:08 AM 37.4 °F 35.6 °F 93% 30.21 in 1.8 mi Calm Calm - N/A   Clear
5:19 AM 37.4 °F 37.4 °F 100% 30.20 in 3.0 mi Calm Calm - N/A   Clear
5:50 AM 37.4 °F 35.6 °F 93% 30.20 in 1.8 mi Calm Calm - N/A   Clear
5:53 AM 37.9 °F 36.0 °F 93% 30.22 in 1.2 mi Calm Calm - N/A   Clear
6:03 AM 37.4 °F 35.6 °F 93% 30.20 in 3.0 mi Calm Calm - N/A   Clear
6:53 AM 39.0 °F 37.0 °F 93% 30.22 in 5.0 mi Calm Calm - N/A   Clear
7:53 AM 45.0 °F 41.0 °F 86% 30.22 in 7.0 mi Calm Calm - N/A   Clear
8:53 AM 55.0 °F 46.9 °F 74% 30.22 in 9.0 mi WSW 6.9 mph - N/A   Clear
9:53 AM 61.0 °F 46.9 °F 60% 30.19 in 10.0 mi WSW 8.1 mph - N/A   Clear
10:53 AM 66.9 °F 45.0 °F 45% 30.15 in 10.0 mi WSW 6.9 mph - N/A   Clear
11:53 AM 69.1 °F 46.0 °F 44% 30.13 in 10.0 mi West 10.4 mph - N/A   Clear
12:53 PM 71.1 °F 46.9 °F 42% 30.10 in 10.0 mi WSW 17.3 mph 20.7 mph N/A   Partly Cloudy
1:53 PM 69.1 °F 46.9 °F 45% 30.09 in 10.0 mi West 13.8 mph 20.7 mph N/A   Mostly Cloudy
2:53 PM 64.9 °F 50.0 °F 58% 30.10 in 10.0 mi WNW 9.2 mph 17.3 mph N/A   Overcast
3:53 PM 63.0 °F 50.0 °F 63% 30.12 in 10.0 mi West 8.1 mph - N/A   Overcast
4:18 PM 62.6 °F 50.0 °F 63% 30.11 in 10.0 mi West 9.2 mph - N/A   Overcast
4:53 PM 61.0 °F 51.1 °F 70% 30.14 in 10.0 mi WNW 8.1 mph - N/A   Overcast
5:33 PM 59.0 °F 50.0 °F 72% 30.14 in 10.0 mi West 8.1 mph - N/A   Overcast
5:53 PM 59.0 °F 50.0 °F 72% 30.16 in 9.0 mi West 10.4 mph - N/A   Mostly Cloudy
6:53 PM 55.9 °F 46.9 °F 72% 30.17 in 10.0 mi Variable 5.8 mph - N/A   Clear
7:53 PM 51.1 °F 46.0 °F 83% 30.17 in 9.0 mi WSW 5.8 mph - N/A   Clear
8:53 PM 46.9 °F 45.0 °F 93% 30.17 in 6.0 mi WSW 6.9 mph - N/A   Clear
9:53 PM 52.0 °F 37.9 °F 59% 30.16 in 10.0 mi NNW 6.9 mph - N/A   Clear
10:53 PM 50.0 °F 34.0 °F 54% 30.16 in 10.0 mi NNW 6.9 mph - N/A   Clear